• Join FlightAware (Why Join?)
  • Login
  • US Flag GB Flag 
08:20 EDT


 

Airport Tracker/Info


-or-


 

Live Flight TrackerFlight Track Log ✈ N606FT ✈ 22-Jun-2013 ✈ X61 - KOBE

Flight Track Log - Related Links

Times and Time Zones

All times are in EDT time to prevent confusion due to time zone crossing. See the N606FT flight status page for this flight to view local times or setup timezone preferences in your user account.

Time Position Orientation Groundspeed Altitude Reporting Facility
EDT Latitude Longitude Course Direction KTS MPH feet Rate Location/Type
16:24 28.3167 -80.7833 155° Southeast 80 92 3,100  Level Orlando TRACON
16:25 28.3000 -80.8000 221° Southwest 89 102 3,600 240 Climbing Orlando TRACON
16:26 28.2667 -80.8000 180° South 115 132 3,600  Level Orlando TRACON
16:28 28.2069 -80.8028 182° South 104 120 3,600  Level Miami Center
16:29 28.1775 -80.8042 182° South 104 120 3,600  Level Miami Center
16:30 28.5886 -81.5503 155° Southeast  Level Estimated
16:30 28.1442 -80.8031 178° South 109 125 3,600  Level Miami Center
16:31 28.1169 -80.8044 183° South 109 125 3,500 -60 Descending Miami Center
16:32 28.0900 -80.8033 178° South 101 116 3,500  Level Miami Center
16:33 28.0586 -80.8000 175° South 101 116 3,500  Level Miami Center
16:34 28.0317 -80.7967 174° South 101 116 3,500  Level Miami Center
16:35 28.0047 -80.7886 165° South 101 116 3,600  Climbing Miami Center
16:36 27.9819 -80.7856 173° South 101 116 3,600  Level Miami Center
16:37 27.9531 -80.7753 163° South 106 122 3,600  Level Miami Center
16:38 27.9261 -80.7647 161° South 106 122 3,600 -60 Level Miami Center
16:39 27.8994 -80.7522 157° South 106 122 3,500  Descending Miami Center
16:40 27.8808 -80.7397 149° Southeast 106 122 3,600  Climbing Miami Center
16:41 27.8519 -80.7272 159° South 101 116 3,500 -60 Descending Miami Center
16:42 27.8253 -80.7169 161° South 101 116 3,500  Level Miami Center
16:43 27.7961 -80.7133 174° South 101 116 3,600  Climbing Miami Center
16:44 27.7708 -80.7197 193° South 101 116 3,500  Descending Miami Center
16:45 27.7456 -80.7258 192° South 106 122 3,600  Climbing Miami Center
16:46 27.7206 -80.7297 188° South 106 122 3,600 -60 Level Miami Center
16:47 27.6911 -80.7358 190° South 106 122 3,500 -60 Descending Miami Center
16:48 27.6658 -80.7394 187° South 100 115 3,500  Level Miami Center
16:49 27.6389 -80.7386 178° South 100 115 3,500  Level Miami Center
16:50 27.6158 -80.7425 189° South 100 115 3,500  Level Miami Center
16:51 27.5906 -80.7464 188° South 100 115 3,500  Level Miami Center
16:52 27.5633 -80.7503 187° South 100 115 3,500  Level Miami Center
16:53 27.5358 -80.7586 195° South 105 121 3,600  Climbing Miami Center
16:54 27.5064 -80.7669 194° South 105 121 3,500 -120 Descending Miami Center